THOR ABLESTAR DEB, 656

Orbit data source: Space-Track

THOR ABLESTAR DEB, 656 is space debris in LEO originally from a launch on Thu, 29 Jun 1961 UTC launched from the Air Force Eastern Test Range (AFETR). Debris objects in space refer to the collection of defunct objects orbiting the Earth. Examples of debris include non-operational satellites, rocket bodies, and fragments generated from explosions, collisions, or faulty payload assembly.

Loading next visibility...
THOR ABLESTAR DEB details
Identifier
656, 1961-015HH
Orbit
LEO
Last TLE update18 hours ago
Origin
Flag of USUSAF SSD (US)
ManufacturerUnknown
MissionSpacecraft
Bus & MotorUnknown
MassUnknown
Launch date (UTC)
1961-06-29 (64 years ago)
Launch vehicleUnknown
Launch site
Air Force Eastern Test Range (AFETR)
Object type
Payload
Rocket body
Debris
Shape & HBRUnknown
Radar Cross SectionSmall (<0.1 m²)

Expand to show TLE details & history

TLE from 18 hours ago
0 THOR ABLESTAR DEB
1 00656U 61015HH  25047.32649660  .00002373  00000-0  48254-2 0  9994
2 00656  66.2864 116.3678 0668192 358.8625   1.0835 12.71726982905187
Epoch: 2025-02-16T07:50Z
Definitive object data (Epoch: 2025-02-16T07:50:09.306Z)
Latitude-0.00003°
Longitude-147.73215°
Altitude858.847 km
Speed7.667 km/s
True Right ascension07h 45m 28s
True Declination0° 00' 00"
Sunlit
Object was in full shadow at TLE epoch
Visualization TLE readout
Latitude11.46533°
Longitude25.66228°
Altitude1,883.161 km
Speed6.718 km/s
Apparent Right ascension18h 16m 21s
Apparent Declination-11° 18' 55"
Sunlit
Object is in daylight
Visualization observer readout
Local Sidereal Time04:30:15
Azimuth313.288° NW
Elevation-53.017°
Doppler factor1
Orbital elements
Apogee altitude1,891.401 km
Perigee altitude855.491 km
Semi-major axis7,751.583 km
Eccentricity0.0668192
Inclination66.2864°
RAAN116.3678°
Arg. of periapsis358.8625°
True anomaly1.24143°
Mean anomaly1.0835°
Eccentric anomaly1.16108°
Mean motion3.18022 °/min
BSTAR0.0048254
Orbital period113.2 mins
Loading maneuver chart data...

THOR ABLESTAR DEB Visibility forecast

Observer location: undefined°, undefined

Span
Click to sort rows by Start time (UTC) header in descending order
Start Az.
Max El. time (UTC)
Max El. Az.
Max El.
End time (UTC)
End Az.
7 mins2025-02-17 04:43:32.822Z137.83° SSE2025-02-17 04:46:32.822Z102.693° ESE18.608°2025-02-17 04:50:32.822Z61.776° ENE
11 mins2025-02-17 06:37:32.822Z228.082° WSW2025-02-17 06:42:32.822Z317.969° NNW40.673°2025-02-17 06:48:32.822Z23.226° NE
6 mins2025-02-17 08:38:32.822Z310.559° NW2025-02-17 08:40:32.822Z329.549° NNW14.614°2025-02-17 08:44:32.822Z3.169° NNE
11 mins2025-02-17 12:38:32.822Z359.497° N2025-02-17 12:43:32.822Z38.326° NE19.398°2025-02-17 12:49:32.822Z76.806° E
18 mins2025-02-17 14:34:32.822Z338.988° N2025-02-17 14:41:32.822Z49.812° ENE41.951°2025-02-17 14:52:32.822Z137.169° SSE
16 mins2025-02-17 16:31:32.822Z308.387° NW2025-02-17 16:38:32.822Z251.19° W31.445°2025-02-17 16:47:32.822Z192.517° SSW
|